Track YAOGAN-30 E now! 10-day predictions YAOGAN-30 E is classified as:
1 43029U 17075B 24284.05992736 .00010933 00000-0 93575-3 0 9997 2 43029 34.9949 45.6202 0004871 272.6468 87.3680 14.96867495374984